[[{"header":{"parameterUnit":"m.s-1","parameterCategory":1,"la1":30.2991,"la2":30.254,"lo1":-89.0895,"lo2":-89.0444,"dy":0.0017,"dx":0.0017,"nx":28,"ny":28,"refTime":"2024-06-30T03:00:00:Z","depth":0,"parameterNumber":2,"parameterNumberName":"U-component_of_WINDS"},"data":[0,0,0,0,0,0,0,0,0,0,0,0,0,0,0,0,0,0,0,0,0,0,0,0,0,0,0,0,0,0,0,0,0,0,0,0,0,0,0,0,0,0,0,0,0,0,0,0,0,0,0,0,0,0,0,0,0,0,-0.7643,-0.7643,0,-0.7632,-0.7632,-0.7632,-0.762,-0.7619,-0.7619,-0.7619,-0.7605,-0.7604,-0.7604,0,0,0,0,0,0,0,0,0,0,0,0,0,-0.765,-0.765,-0.7643,-0.7643,-0.7643,-0.7632,-0.7632,-0.7632,-0.762,-0.7619,-0.7619,-0.7619,-0.7605,-0.7605,-0.7604,0,0,0,0,0,0,0,0,0,0,0,0,0,-0.7644,-0.765,-0.7643,-0.7635,-0.7634,-0.7632,-0.7632,-0.7632,-0.762,-0.7619,-0.7619,-0.7619,-0.7605,-0.7605,-0.7604,-0.7608,0,0,-0.7603,-0.7603,0,0,0,0,0,0,0,0,-0.7644,-0.7643,-0.7636,-0.7636,-0.7635,-0.7627,-0.7629,-0.7624,-0.762,-0.7625,-0.7619,-0.7619,-0.7612,-0.7611,-0.761,-0.7607,-0.7607,-0.7603,-0.7603,-0.7603,-0.7603,0,0,0,0,0,0,0,-0.7645,-0.7644,-0.7639,-0.7636,-0.7635,-0.7632,-0.763,-0.7628,-0.762,-0.7625,-0.7624,-0.7623,-0.7612,-0.761,-0.7609,-0.7606,-0.7603,-0.7603,-0.7603,-0.7603,-0.7608,-0.7608,0,0,0,0,0,0,-0.7646,-0.7644,-0.7639,-0.7638,-0.7639,-0.7632,-0.763,-0.763,-0.762,-0.7619,-0.7623,-0.7622,-0.7611,-0.761,-0.7609,-0.7613,-0.7603,-0.7603,-0.7602,-0.7607,-0.7608,-0.7608,0,0,0,0,0,0,-0.7647,-0.7646,-0.7639,-0.7641,-0.764,-0.7632,-0.7631,-0.763,-0.7628,-0.7619,-0.7617,-0.7623,-0.761,-0.7609,-0.7609,-0.7612,-0.7602,-0.7602,-0.7607,-0.7608,-0.7608,-0.7622,0,0,0,0,0,0,-0.7647,-0.7646,-0.7648,-0.7641,-0.764,-0.764,-0.7632,-0.763,-0.7628,-0.7627,-0.7619,-0.7617,-0.761,-0.7609,-0.7608,-0.7612,-0.7602,-0.7607,-0.7607,-0.7608,-0.7621,-0.7623,-0.7624,0,0,0,0,0,-0.7647,-0.7651,-0.7648,-0.7648,-0.7642,-0.764,-0.764,-0.7633,-0.7628,-0.763,-0.7624,-0.7617,-0.7613,-0.7609,-0.7608,-0.7612,-0.7606,-0.7607,-0.7608,-0.762,-0.7622,-0.7624,0,0,0,0,0,0,-0.7657,-0.765,-0.7647,-0.7649,-0.7646,-0.7638,-0.764,-0.7635,-0.7632,-0.7631,-0.7621,-0.7619,-0.762,-0.7616,-0.7613,-0.7615,-0.7608,-0.7609,-0.7618,-0.762,-0.7622,-0.7622,-0.7602,0,0,0,0,0,-0.7659,-0.766,-0.7653,-0.7656,-0.7655,-0.7648,-0.7647,-0.7642,-0.7638,-0.7636,-0.763,-0.7625,-0.7623,-0.7621,-0.7618,-0.7621,-0.7619,-0.7622,-0.7624,-0.7625,-0.7626,-0.7627,-0.7629,-0.7611,-0.7611,-0.7611,0,0,-0.7664,-0.7661,-0.7661,-0.7658,-0.7655,-0.7655,-0.7646,-0.7646,-0.7646,-0.7635,-0.7635,-0.7631,-0.7625,-0.7626,-0.7627,-0.7623,-0.7631,-0.7626,-0.7628,-0.7627,-0.7628,-0.763,-0.7632,-0.7611,-0.7611,-0.7611,0,0,-0.7673,-0.767,-0.7672,-0.767,-0.7666,-0.7662,-0.7663,-0.7657,-0.7654,-0.7654,-0.7647,-0.7646,-0.7642,-0.7638,-0.7636,-0.7646,-0.764,-0.7645,-0.7653,-0.7655,-0.7657,-0.7658,-0.7662,-0.7663,-0.7646,-0.7646,-0.7646,0,-0.7679,-0.7679,-0.7674,-0.7675,-0.7674,-0.7666,-0.7668,-0.7666,-0.7661,-0.766,-0.7656,-0.7652,-0.7648,-0.7648,-0.7651,-0.7649,-0.765,-0.7646,-0.7657,-0.7658,-0.7659,-0.7663,-0.7664,-0.7647,-0.7647,-0.7646,-0.7646,0,-0.7687,-0.7688,-0.769,-0.7687,-0.7686,-0.7688,-0.7682,-0.7682,-0.7678,-0.7674,-0.7675,-0.7669,-0.7666,-0.7666,-0.7661,-0.7666,-0.7664,-0.7659,-0.7652,-0.7662,-0.7665,-0.7666,-0.7648,-0.7647,-0.7647,-0.7647,0,0,-0.77,-0.7696,-0.7697,-0.7696,-0.7692,-0.7692,-0.7694,-0.7692,-0.7692,-0.7689,-0.769,-0.7688,-0.7684,-0.7681,-0.7676,-0.7678,-0.7687,-0.7672,-0.7672,-0.7675,-0.7693,-0.7697,-0.7699,-0.7683,-0.7683,-0.7683,-0.7694,0,-0.7708,-0.7711,-0.7707,-0.7711,-0.7712,-0.7705,-0.7707,-0.7704,-0.7701,-0.7701,-0.7697,-0.7696,-0.769,-0.7689,-0.769,-0.7685,-0.769,-0.7685,-0.7683,-0.7683,-0.7685,-0.77,-0.7704,-0.7714,-0.7695,-0.7695,-0.7695,0,-0.7717,-0.7717,-0.7721,-0.7719,-0.7719,-0.772,-0.7719,-0.7719,-0.7717,-0.7714,-0.7713,-0.7708,-0.7708,-0.7702,-0.7704,-0.77,-0.7699,-0.7697,-0.7697,-0.7696,-0.7689,-0.77,-0.7717,-0.7718,-0.7697,-0.7697,-0.7697,0,-0.7726,-0.7727,-0.773,-0.773,-0.7727,-0.7728,-0.7727,-0.7724,-0.7724,-0.7723,-0.7722,-0.7721,-0.772,-0.7718,-0.7713,-0.7709,-0.7715,-0.7708,-0.7713,-0.7713,-0.7713,-0.7713,-0.773,-0.7714,-0.7714,-0.7714,-0.7714,0,-0.7735,-0.7738,-0.7734,-0.7736,-0.774,-0.7735,-0.7738,-0.7736,-0.7734,-0.7735,-0.773,-0.7731,-0.7724,-0.7724,-0.7719,-0.7721,-0.7721,-0.7719,-0.7717,-0.7719,-0.7719,-0.7718,-0.7717,-0.7714,-0.7714,-0.7714,-0.7714,0,-0.7745,-0.7743,-0.7746,-0.7744,-0.7744,-0.7746,-0.7744,-0.7746,-0.7743,-0.7745,-0.7745,-0.774,-0.774,-0.7735,-0.7733,-0.7731,-0.7734,-0.7732,-0.7736,-0.7735,-0.774,-0.7739,-0.7756,-0.7758,-0.774,-0.7741,-0.7741,0,-0.7751,-0.7754,-0.7753,-0.7754,-0.7753,-0.7755,-0.7755,-0.7751,-0.7752,-0.775,-0.7752,-0.7752,-0.7752,-0.7752,-0.7748,-0.7747,-0.7744,-0.7751,-0.7744,-0.7746,-0.7745,-0.7744,-0.7745,-0.7751,-0.7752,-0.7752,-0.7752,0,-0.7762,-0.7761,-0.7762,-0.7764,-0.7765,-0.7765,-0.7765,-0.7766,-0.7762,-0.7763,-0.7764,-0.7764,-0.7764,-0.7764,-0.7762,-0.776,-0.7755,-0.7755,-0.7755,-0.7757,-0.7759,-0.7758,-0.7739,-0.7754,-0.7754,-0.7753,-0.7753,-0.7753,-0.777,-0.7772,-0.7772,-0.7774,-0.7775,-0.7775,-0.7777,-0.7776,-0.7777,-0.7777,-0.7775,-0.7776,-0.7775,-0.7773,-0.7772,-0.7773,-0.7769,-0.7771,-0.7771,-0.7771,-0.7773,-0.776,-0.7772,-0.7772,-0.7772,-0.7772,-0.7772,0,-0.778,-0.778,-0.7782,-0.7784,-0.7785,-0.7783,-0.7783,-0.7784,-0.7786,-0.7786,-0.7787,-0.7788,-0.7789,-0.7786,-0.7786,-0.7788,-0.7785,-0.7788,-0.7787,-0.7787,-0.7775,-0.7774,-0.779,-0.779,-0.779,-0.779,-0.779,-0.779,-0.7785,-0.779,-0.7789,-0.7794,-0.7794,-0.7797,-0.7797,-0.7798,-0.7798,-0.78,-0.7802,-0.78,-0.7799,-0.7799,-0.78,-0.7799,-0.7799,-0.7802,-0.7801,-0.7789,-0.7788,-0.7786,-0.7785,-0.7802,-0.7802,-0.7812,-0.7812,-0.7812]},{"header":{"parameterUnit":"m.s-1","parameterCategory":1,"la1":30.2991,"la2":30.254,"lo1":-89.0895,"lo2":-89.0444,"dy":0.0017,"dx":0.0017,"nx":28,"ny":28,"refTime":"2024-06-30T03:00:00:Z","depth":0,"parameterNumber":3,"parameterNumberName":"V-component_of_WINDS"},"data":[0,0,0,0,0,0,0,0,0,0,0,0,0,0,0,0,0,0,0,0,0,0,0,0,0,0,0,0,0,0,0,0,0,0,0,0,0,0,0,0,0,0,0,0,0,0,0,0,0,0,0,0,0,0,0,0,0,0,-3.0503,-3.0502,0,-3.0399,-3.0398,-3.0397,-3.0348,-3.0348,-3.0348,-3.0348,-3.0237,-3.0234,-3.0231,0,0,0,0,0,0,0,0,0,0,0,0,0,-3.0656,-3.0653,-3.0503,-3.0502,-3.0501,-3.04,-3.0398,-3.0397,-3.0348,-3.0348,-3.0348,-3.0348,-3.0238,-3.0234,-3.0231,0,0,0,0,0,0,0,0,0,0,0,0,0,-3.0574,-3.0653,-3.0504,-3.0464,-3.046,-3.04,-3.0398,-3.0396,-3.0348,-3.0348,-3.0348,-3.0348,-3.0239,-3.0235,-3.023,-3.02,0,0,-3.0216,-3.0214,0,0,0,0,0,0,0,0,-3.0579,-3.0569,-3.0471,-3.0467,-3.0462,-3.0387,-3.0411,-3.033,-3.0348,-3.039,-3.0348,-3.0348,-3.0286,-3.0278,-3.0258,-3.0195,-3.019,-3.0216,-3.0213,-3.0211,-3.021,0,0,0,0,0,0,0,-3.0585,-3.0573,-3.0462,-3.047,-3.0464,-3.0451,-3.0439,-3.0395,-3.0339,-3.0387,-3.0383,-3.0371,-3.0284,-3.0262,-3.0255,-3.0188,-3.0216,-3.0212,-3.0209,-3.0207,-3.0096,-3.0095,0,0,0,0,0,0,-3.0597,-3.0578,-3.0465,-3.0459,-3.0522,-3.0448,-3.0435,-3.0411,-3.0339,-3.0328,-3.0371,-3.0369,-3.027,-3.026,-3.0251,-3.0211,-3.0211,-3.0207,-3.0204,-3.0096,-3.0095,-3.0095,0,0,0,0,0,0,-3.0601,-3.0588,-3.047,-3.0518,-3.0501,-3.0445,-3.0418,-3.0409,-3.0387,-3.0328,-3.0317,-3.036,-3.027,-3.0257,-3.0213,-3.0207,-3.0205,-3.0201,-3.0096,-3.0096,-3.0095,-3.0132,0,0,0,0,0,0,-3.0606,-3.0589,-3.0578,-3.0518,-3.0499,-3.0435,-3.0418,-3.0406,-3.038,-3.0377,-3.0315,-3.0304,-3.0269,-3.0221,-3.0209,-3.02,-3.0197,-3.0096,-3.0096,-3.0095,-3.0131,-3.0133,-3.0134,0,0,0,0,0,-3.0611,-3.0591,-3.0578,-3.0565,-3.0484,-3.0435,-3.0424,-3.0385,-3.038,-3.0368,-3.033,-3.0306,-3.021,-3.0216,-3.0203,-3.0193,-3.0097,-3.0096,-3.0095,-3.013,-3.0132,-3.0134,0,0,0,0,0,0,-3.065,-3.0583,-3.0567,-3.0527,-3.0488,-3.0427,-3.041,-3.0389,-3.0348,-3.0346,-3.0298,-3.0285,-3.0245,-3.0214,-3.0223,-3.016,-3.0151,-3.0148,-3.0182,-3.0183,-3.0185,-3.0193,-3.0193,0,0,0,0,0,-3.0655,-3.0622,-3.0564,-3.0534,-3.0515,-3.0466,-3.0443,-3.0417,-3.0373,-3.0356,-3.0314,-3.0271,-3.0231,-3.0205,-3.0165,-3.0126,-3.0112,-3.0113,-3.0115,-3.0116,-3.0114,-3.0092,-3.0091,-3.0093,-3.0093,-3.0093,0,0,-3.0662,-3.0621,-3.0603,-3.0541,-3.0507,-3.0473,-3.0452,-3.0417,-3.0391,-3.0349,-3.0306,-3.0275,-3.0223,-3.0182,-3.0162,-3.0155,-3.011,-3.0116,-3.0118,-3.0114,-3.0091,-3.0091,-3.0091,-3.0093,-3.0093,-3.0093,0,0,-3.0659,-3.0625,-3.0598,-3.0565,-3.0515,-3.0482,-3.0476,-3.0419,-3.0397,-3.0353,-3.0322,-3.0289,-3.0221,-3.0186,-3.016,-3.0146,-3.0123,-3.0134,-3.0142,-3.0121,-3.0121,-3.0121,-3.0116,-3.0115,-3.0132,-3.0132,-3.0132,0,-3.0675,-3.0624,-3.0585,-3.0552,-3.0526,-3.049,-3.0461,-3.043,-3.0368,-3.035,-3.0345,-3.0259,-3.0222,-3.0173,-3.017,-3.0149,-3.014,-3.014,-3.0125,-3.0124,-3.0123,-3.0118,-3.0116,-3.0134,-3.0133,-3.0133,-3.0133,0,-3.0646,-3.0611,-3.0594,-3.0539,-3.051,-3.0479,-3.0435,-3.0411,-3.0387,-3.0356,-3.0312,-3.0266,-3.0217,-3.0203,-3.0179,-3.015,-3.0148,-3.0134,-3.0123,-3.0125,-3.0119,-3.0117,-3.0136,-3.0135,-3.0135,-3.0134,0,0,-3.0663,-3.0588,-3.0583,-3.0558,-3.05,-3.0472,-3.0439,-3.0393,-3.0373,-3.0332,-3.0303,-3.0247,-3.0235,-3.0204,-3.0176,-3.0158,-3.015,-3.0146,-3.0144,-3.0148,-3.0116,-3.0127,-3.0125,-3.0135,-3.0134,-3.0134,-3.012,0,-3.0653,-3.0595,-3.056,-3.0515,-3.0483,-3.0448,-3.042,-3.0381,-3.0351,-3.0318,-3.0283,-3.0245,-3.0231,-3.0213,-3.0193,-3.0155,-3.0143,-3.0156,-3.0107,-3.0105,-3.0121,-3.0122,-3.0133,-3.0123,-3.0118,-3.0117,-3.0117,0,-3.0632,-3.0595,-3.0548,-3.0496,-3.0481,-3.0456,-3.0411,-3.038,-3.0335,-3.0315,-3.0282,-3.0254,-3.0218,-3.0211,-3.016,-3.0169,-3.0147,-3.0126,-3.0124,-3.0118,-3.0111,-3.0116,-3.0118,-3.0117,-3.0113,-3.0113,-3.0114,0,-3.065,-3.0588,-3.0552,-3.0531,-3.0469,-3.0453,-3.0426,-3.0382,-3.0356,-3.0316,-3.03,-3.0255,-3.0231,-3.0197,-3.0158,-3.0156,-3.011,-3.01,-3.0091,-3.0092,-3.0083,-3.0084,-3.0082,-3.0069,-3.0069,-3.0069,-3.0069,0,-3.0642,-3.0614,-3.056,-3.0537,-3.0506,-3.0466,-3.0435,-3.0405,-3.0366,-3.0337,-3.0303,-3.0276,-3.0226,-3.0193,-3.0161,-3.0124,-3.0113,-3.0094,-3.0086,-3.0097,-3.01,-3.0082,-3.0081,-3.0068,-3.0069,-3.0069,-3.0069,0,-3.0656,-3.0618,-3.0577,-3.0523,-3.0509,-3.0488,-3.044,-3.0417,-3.0386,-3.0349,-3.0338,-3.0289,-3.0248,-3.0205,-3.0149,-3.0128,-3.0091,-3.008,-3.0107,-3.0103,-3.0096,-3.0098,-3.0082,-3.0078,-3.0069,-3.0069,-3.0069,0,-3.0653,-3.0632,-3.0576,-3.0555,-3.053,-3.0496,-3.0471,-3.0431,-3.0405,-3.0354,-3.0337,-3.0294,-3.0257,-3.0193,-3.0151,-3.0108,-3.0095,-3.0093,-3.0088,-3.01,-3.0095,-3.0097,-3.0095,-3.0094,-3.0095,-3.0095,-3.0095,0,-3.0652,-3.0635,-3.0601,-3.0561,-3.0532,-3.0498,-3.0462,-3.0447,-3.0399,-3.0372,-3.0331,-3.0303,-3.0247,-3.0204,-3.0156,-3.0127,-3.0103,-3.0097,-3.0093,-3.0104,-3.012,-3.0111,-3.0112,-3.0097,-3.0097,-3.0097,-3.0097,-3.0097,-3.0658,-3.0638,-3.0596,-3.0559,-3.0529,-3.0497,-3.0473,-3.044,-3.0405,-3.0358,-3.0335,-3.0294,-3.025,-3.0184,-3.0155,-3.0122,-3.0115,-3.0108,-3.0107,-3.0106,-3.0109,-3.0126,-3.0113,-3.0113,-3.0112,-3.0112,-3.0112,0,-3.0655,-3.0627,-3.0594,-3.0547,-3.0518,-3.05,-3.046,-3.0437,-3.0401,-3.0363,-3.0329,-3.0282,-3.0241,-3.0196,-3.0152,-3.0134,-3.0122,-3.0124,-3.0124,-3.0118,-3.0117,-3.0126,-3.0134,-3.0134,-3.0134,-3.0134,-3.0134,-3.0134,-3.0651,-3.0616,-3.0594,-3.0544,-3.0515,-3.0477,-3.0455,-3.0425,-3.0395,-3.0345,-3.0311,-3.0283,-3.0242,-3.0196,-3.0157,-3.0145,-3.013,-3.0135,-3.012,-3.012,-3.0118,-3.0116,-3.0124,-3.0132,-3.0132,-3.0123,-3.0123,-3.0123]}]]